Date String (YYYY-MM-DD hh:mm:ss) UTC,Instrument flags,Ambient pressure (hPa),Sample flow (lpm),Bypass flow (lpm),Sample temperature (°C),Ambient temperature (°C),ASC tube jacket temperature (°C),LED temperature (°C),Box temperature (°C),Sample RH (%),Span deviation,Mass concentration (μg/m³),Mass concentration (μg/m³),Mass concentration (μg/m³)
DateTimeUTC,F1_M11,P_M11,Q1_M11,Q2_M11,T1_M11,T2_M11,T3_M11,T4_M11,T5_M11,U1_M11,ZSPAN_M11,X0_M11,X2_M11,X1_M11
2023-04-12 13:00:00,,0826.1,4.99,0.00,27.9,26.1,00.0,36.3,29.5,09.4,0000.0,0007.56,0003.26,0001.94
2023-04-12 13:01:00,,0826.1,4.99,0.00,27.9,26.1,00.0,36.3,29.5,09.4,0000.0,0007.56,0003.25,0001.95
2023-04-12 13:02:00,,0826.1,4.99,0.00,27.9,26.1,00.0,36.3,29.4,09.4,0000.0,0007.20,0003.22,0001.96
2023-04-12 13:03:00,,0826.1,5.00,0.00,27.9,26.1,00.0,36.3,29.4,09.3,0000.0,0006.79,0003.19,0001.96
2023-04-12 13:04:00,,0826.2,5.01,0.00,27.9,26.1,00.0,36.3,29.4,09.3,0000.0,0006.87,0003.21,0001.96
2023-04-12 13:05:00,,0826.2,5.01,0.00,27.9,26.1,00.0,36.3,29.4,09.3,0000.0,0007.44,0003.23,0001.95
2023-04-12 13:06:00,,0826.1,4.99,0.00,27.9,26.1,00.0,36.3,29.5,09.1,0000.0,0007.45,0003.24,0001.97
2023-04-12 13:07:00,,0826.2,5.00,0.00,27.9,26.1,00.0,36.3,29.5,09.1,0000.0,0007.57,0003.28,0001.98
2023-04-12 13:08:00,,0826.2,5.01,0.00,27.9,26.1,00.0,36.3,29.5,09.1,0000.0,0008.05,0003.31,0001.97
2023-04-12 13:09:00,,0826.2,5.01,0.00,27.9,26.2,00.0,36.3,29.5,09.1,0000.0,0007.82,0003.30,0001.95
2023-04-12 13:10:00,,0826.1,4.99,0.00,27.9,26.2,00.0,36.3,29.5,09.1,0000.0,0007.62,0003.28,0001.96
2023-04-12 13:11:00,,0826.1,4.99,0.00,27.9,26.2,00.0,36.3,29.5,09.3,0000.0,0007.77,0003.28,0001.95
2023-04-12 13:12:00,,0826.1,5.00,0.00,27.9,26.1,00.0,36.3,29.5,09.9,0000.0,0008.09,0003.31,0001.97
2023-04-12 13:13:00,,0826.0,4.99,0.00,27.9,26.1,00.0,36.3,29.4,09.5,0000.0,0008.36,0003.31,0001.98
2023-04-12 13:14:00,,0826.0,5.00,0.00,27.9,26.1,00.0,36.3,29.4,09.2,0000.0,0008.52,0003.33,0001.98
2023-04-12 13:15:00,,0826.1,5.00,0.00,27.9,26.1,00.0,36.3,29.5,09.2,0000.0,0008.37,0003.28,0001.98
2023-04-12 13:16:00,,0826.1,5.01,0.00,27.9,26.1,00.0,36.3,29.5,09.0,0000.0,0008.06,0003.29,0001.98
2023-04-12 13:17:00,,0826.1,5.00,0.00,27.9,26.1,00.0,36.3,29.4,09.0,0000.0,0008.23,0003.35,0001.99
2023-04-12 13:18:00,,0826.1,5.00,0.00,27.9,26.1,00.0,36.3,29.4,08.9,0000.0,0008.26,0003.37,0001.99
2023-04-12 13:19:00,,0826.0,4.99,0.00,27.9,26.1,00.0,36.3,29.4,08.8,0000.0,0008.13,0003.35,0001.98
2023-04-12 13:20:00,,0826.0,5.00,0.00,27.9,26.1,00.0,36.3,29.5,08.8,0000.0,0008.20,0003.38,0001.99
2023-04-12 13:21:00,,0826.1,4.99,0.00,27.9,26.1,00.0,36.3,29.5,08.8,0000.0,0008.40,0003.36,0002.01
2023-04-12 13:22:00,,0826.1,5.00,0.00,27.9,26.1,00.0,36.3,29.5,08.8,0000.0,0008.32,0003.33,0002.01
2023-04-12 13:23:00,,0826.1,5.01,0.00,27.9,26.1,00.0,36.3,29.5,08.8,0000.0,0008.14,0003.31,0002.00
2023-04-12 13:24:00,,0826.1,5.01,0.00,27.9,26.2,00.0,36.2,29.5,08.7,0000.0,0008.07,0003.33,0002.00
2023-04-12 13:25:00,,0826.1,5.00,0.00,27.9,26.2,00.0,36.3,29.5,08.7,0000.0,0008.32,0003.34,0002.01
2023-04-12 13:26:00,,0826.2,5.00,0.00,27.9,26.2,00.0,36.3,29.5,09.3,0000.0,0009.33,0003.39,0002.01
2023-04-12 13:27:00,,0826.2,4.99,0.00,27.9,26.2,00.0,36.2,29.5,10.1,0000.0,0009.46,0003.42,0002.03
2023-04-12 13:28:00,,0826.2,4.99,0.00,27.9,26.2,00.0,36.2,29.5,10.5,0000.0,0009.73,0003.39,0002.03
2023-04-12 13:29:00,,0826.1,5.01,0.00,27.9,26.2,00.0,36.2,29.5,10.4,0000.0,0009.85,0003.34,0002.02
2023-04-12 13:30:00,,0826.2,5.01,0.00,27.9,26.2,00.0,36.2,29.5,11.0,0000.0,0009.63,0003.35,0002.02
2023-04-12 13:31:00,,0826.2,5.00,0.00,27.9,26.2,00.0,36.2,29.5,11.5,0000.0,0009.87,0003.39,0002.02
2023-04-12 13:32:00,,0826.2,5.00,0.00,27.9,26.3,00.0,36.3,29.5,09.8,0000.0,0009.82,0003.40,0002.01
2023-04-12 13:33:00,,0826.2,4.99,0.00,27.9,26.3,00.0,36.3,29.5,10.2,0000.0,0009.73,0003.39,0002.01
2023-04-12 13:34:00,,0826.2,5.00,0.00,27.9,26.3,00.0,36.3,29.5,10.8,0000.0,0009.70,0003.41,0002.01
2023-04-12 13:35:00,,0826.2,4.99,0.00,27.9,26.3,00.0,36.3,29.5,11.8,0000.0,0009.86,0003.41,0002.00
2023-04-12 13:36:00,,0826.2,5.00,0.00,28.0,26.3,00.0,36.3,29.5,10.9,0000.0,0009.60,0003.43,0002.00
2023-04-12 13:37:00,,0826.2,5.00,0.00,27.9,26.2,00.0,36.3,29.5,10.7,0000.0,0008.67,0003.40,0001.99
2023-04-12 13:38:00,,0826.3,5.00,0.00,27.9,26.2,00.0,36.3,29.5,10.1,0000.0,0008.59,0003.36,0001.98
2023-04-12 13:39:00,,0826.2,5.01,0.00,28.0,26.2,00.0,36.3,29.5,10.5,0000.0,0008.27,0003.35,0001.97
2023-04-12 13:40:00,,0826.1,5.01,0.00,28.0,26.2,00.0,36.3,29.5,11.2,0000.0,0008.28,0003.38,0001.97
2023-04-12 13:41:00,,0826.2,5.00,0.00,28.0,26.3,00.0,36.3,29.5,11.4,0000.0,0008.75,0003.36,0001.96
2023-04-12 13:42:00,,0826.2,5.00,0.00,28.0,26.3,00.0,36.3,29.5,10.9,0000.0,0008.42,0003.29,0001.96
2023-04-12 13:43:00,,0826.2,4.99,0.00,28.0,26.3,00.0,36.3,29.6,10.7,0000.0,0008.16,0003.24,0001.96
2023-04-12 13:44:00,,0826.2,5.00,0.00,28.0,26.3,00.0,36.3,29.6,10.7,0000.0,0008.56,0003.26,0001.97
2023-04-12 13:45:00,,0826.2,5.00,0.00,28.0,26.3,00.0,36.3,29.5,10.4,0000.0,0008.88,0003.26,0001.98
2023-04-12 13:46:00,,0826.2,5.00,0.00,28.0,26.3,00.0,36.3,29.6,09.9,0000.0,0008.80,0003.27,0002.00
2023-04-12 13:47:00,,0826.2,5.01,0.00,28.0,26.4,00.0,36.3,29.6,10.0,0000.0,0008.70,0003.26,0002.01
2023-04-12 13:48:00,,0826.2,5.00,0.00,28.0,26.4,00.0,36.3,29.6,09.8,0000.0,0009.01,0003.29,0002.04
2023-04-12 13:49:00,,0826.2,5.00,0.00,28.0,26.4,00.0,36.3,29.6,09.5,0000.0,0009.30,0003.35,0002.08
2023-04-12 13:50:00,,0826.2,5.00,0.00,28.0,26.4,00.0,36.3,29.6,09.8,0000.0,0009.30,0003.39,0002.10
2023-04-12 13:51:00,,0826.2,5.00,0.00,28.0,26.4,00.0,36.3,29.6,10.0,0000.0,0009.09,0003.40,0002.14
2023-04-12 13:52:00,,0826.2,5.00,0.00,28.0,26.4,00.0,36.3,29.6,10.0,0000.0,0008.83,0003.45,0002.18
2023-04-12 13:53:00,,0826.2,4.99,0.00,28.0,26.4,00.0,36.3,29.6,10.3,0000.0,0009.11,0003.49,0002.20
2023-04-12 13:54:00,,0826.3,5.00,0.00,28.0,26.4,00.0,36.3,29.6,10.4,0000.0,0009.15,0003.51,0002.24
2023-04-12 13:55:00,,0826.2,5.00,0.00,28.0,26.4,00.0,36.3,29.6,11.3,0000.0,0009.19,0003.53,0002.27
2023-04-12 13:56:00,,0826.2,5.00,0.00,28.1,26.4,00.0,36.3,29.6,11.8,0000.0,0009.07,0003.52,0002.28
2023-04-12 13:57:00,,0826.3,5.00,0.00,28.1,26.4,00.0,36.3,29.6,12.3,0000.0,0009.66,0003.52,0002.30
2023-04-12 13:58:00,,0826.2,5.00,0.00,28.1,26.4,00.0,36.3,29.6,12.9,0000.0,0010.40,0003.51,0002.30
2023-04-12 13:59:00,,0826.2,5.00,0.00,28.1,26.4,00.0,36.4,29.7,13.0,0000.0,0010.85,0003.52,0002.29
